Change the Weather History Date:

Saturday, January 18, 2014

  Actual Average Record
Temperature  
Mean Temperature 44 °F 44 °F  
Max Temperature 64 °F 55 °F 77 °F (1933)
Min Temperature 24 °F 33 °F -1 °F (1930)
Degree Days  
Heating Degree Days 21 21  
Month to date heating degree days 442 387  
Since 1 July heating degree days 1666 1474  
Cooling Degree Days 0 0  
Month to date cooling degree days 0 0  
Year to date cooling degree days 0 0  
Moisture  
Dew Point 22 °F    
Average Humidity 51    
Maximum Humidity 81    
Minimum Humidity 20    
Precipitation  
Precipitation 0.00 in 0.14 in 1.92 in (1993)
Month to date precipitation 1.16 2.39  
Year to date precipitation 1.16 2.39  
Snow  
Snow 0.00 in - - ()
Month to date snowfall 0.0  
Since 1 July snowfall T  
Snow Depth 0.00 in    
Sea Level Pressure  
Sea Level Pressure 30.10 in    
Wind  
Wind Speed 8 mph (SW)    
Max Wind Speed 24 mph    
Max Gust Speed 37 mph    
Visibility 10 miles    
Events      
T = Trace of Precipitation, MM = Missing Value Source: NWS Daily Summary

Daily Weather History Graph

Daily Weather History Graph

Search for Another Location

Airport or City:

Trip Planner

Search our weather history database for the weather conditions in past years. The results will help you decide how hot, cold, wet, or windy it might be!

Date:

Astronomy

Jan. 18, 2014 Rise Set
Actual Time 7:13 AM CST 5:29 PM CST
Civil Twilight 6:47 AM CST 5:56 PM CST
Nautical Twilight 6:16 AM CST 6:26 PM CST
Astronomical Twilight 5:47 AM CST 6:56 PM CST
Moon 8:01 PM CST (1/18) 8:23 AM CST (1/18)
Length of Visible Light 11h 09m
Length of Day
10h 15m
Waning Gibbous, 94% of the Moon is Illuminated
Jan 18
Waning Gibbous
Jan 23
Last Quarter
Jan 30
New
Feb 6
First Quarter
Feb 14
Full

Hourly Weather History & Observations

Time (CST) Temp. Windchill Dew Point Humidity Pressure Visibility Wind Dir Wind Speed Gust Speed Precip Events Conditions
12:53 AM 25.0 °F - 18.0 °F 75% 30.24 in 10.0 mi Calm Calm - N/A   Clear
1:53 AM 25.0 °F - 19.0 °F 78% 30.24 in 10.0 mi Calm Calm - N/A   Clear
2:53 AM 25.0 °F - 19.0 °F 78% 30.22 in 10.0 mi Calm Calm - N/A   Clear
3:53 AM 24.1 °F - 19.0 °F 81% 30.22 in 10.0 mi Calm Calm - N/A   Clear
4:53 AM 24.1 °F - 19.0 °F 81% 30.19 in 10.0 mi Calm Calm - N/A   Clear
5:53 AM 26.1 °F - 18.0 °F 71% 30.19 in 10.0 mi Calm Calm - N/A   Clear
6:53 AM 27.0 °F - 18.0 °F 69% 30.19 in 10.0 mi Calm Calm - N/A   Clear
7:53 AM 28.9 °F - 19.9 °F 69% 30.18 in 10.0 mi Calm Calm - N/A   Clear
8:53 AM 37.0 °F 32.4 °F 21.9 °F 54% 30.17 in 10.0 mi South 5.8 mph - N/A   Clear
9:53 AM 46.0 °F 40.6 °F 19.0 °F 34% 30.17 in 10.0 mi SSW 11.5 mph 19.6 mph N/A   Clear
10:53 AM 53.1 °F - 19.0 °F 26% 30.14 in 10.0 mi SW 13.8 mph 21.9 mph N/A   Clear
11:53 AM 57.0 °F - 19.9 °F 24% 30.09 in 10.0 mi SSW 17.3 mph 24.2 mph N/A   Clear
12:53 PM 60.1 °F - 21.0 °F 22% 30.05 in 10.0 mi SW 20.7 mph 31.1 mph N/A   Clear
1:53 PM 62.1 °F - 21.9 °F 21% 30.01 in 10.0 mi WSW 16.1 mph 27.6 mph N/A   Clear
2:53 PM 63.0 °F - 24.1 °F 23% 29.98 in 10.0 mi WSW 20.7 mph 32.2 mph N/A   Clear
3:53 PM 63.0 °F - 24.1 °F 23% 29.97 in 10.0 mi SW 12.7 mph 25.3 mph N/A   Clear
4:53 PM 61.0 °F - 25.0 °F 25% 29.97 in 10.0 mi SW 11.5 mph - N/A   Clear
5:53 PM 59.0 °F - 25.0 °F 27% 29.97 in 10.0 mi SSW 11.5 mph - N/A   Clear
6:53 PM 55.9 °F - 26.1 °F 32% 29.97 in 10.0 mi SW 9.2 mph - N/A   Clear
7:53 PM 54.0 °F - 26.1 °F 34% 30.01 in 10.0 mi WSW 5.8 mph - N/A   Clear
8:53 PM 54.0 °F - 27.0 °F 35% 30.01 in 10.0 mi SW 6.9 mph - N/A   Mostly Cloudy
9:53 PM 54.0 °F - 28.9 °F 38% 30.05 in 10.0 mi West 5.8 mph - N/A   Mostly Cloudy
10:53 PM 51.1 °F - 30.0 °F 44% 30.06 in 10.0 mi West 5.8 mph - N/A   Clear
11:53 PM 45.0 °F 42.6 °F 28.9 °F 53% 30.08 in 10.0 mi WNW 4.6 mph - N/A   Clear